ORE YRED-YBUD

Flight info

Callsign ORE
Flight time N/A
Altitude 3000
Route YRED/25 N0112F030 DCT BBI/N0112F040 DCT SU DCT DLP DCT BUD DCT YBUD/32
Aircraft C172/L-V/N

Departure

Time 2026-04-15 23:24
Airport Redcliffe Airport (YRED)

Arrival

Time N/A
Airport Bundaberg Airport (YBUD)
Time Latitude Longitude Altitude Speed Heading
2026-04-15 23:19 -27.20608 153.07401 8 ft 0 kts 349°
2026-04-15 23:20 -27.20597 153.07393 15 ft 3 kts 298°
2026-04-15 23:21 -27.20603 153.07356 20 ft 8 kts 256°
2026-04-15 23:21 -27.20617 153.07289 15 ft 10 kts 258°
2026-04-15 23:21 -27.20621 153.07271 15 ft 0 kts 257°
2026-04-15 23:22 -27.20618 153.07251 15 ft 6 kts 317°
2026-04-15 23:22 -27.20584 153.07239 16 ft 6 kts 346°
2026-04-15 23:22 -27.20541 153.07227 17 ft 6 kts 347°
2026-04-15 23:22 -27.20511 153.07219 18 ft 3 kts 345°
2026-04-15 23:23 -27.20486 153.07239 18 ft 7 kts 83°
2026-04-15 23:23 -27.20478 153.07249 18 ft 4 kts 249°
2026-04-15 23:23 -27.20513 153.07084 17 ft 45 kts 257°
2026-04-15 23:23 -27.20610 153.06608 48 ft 73 kts 258°
2026-04-15 23:24 -27.20724 153.06041 196 ft 77 kts 257°
2026-04-15 23:24 -27.20704 153.05468 404 ft 73 kts 303°
2026-04-15 23:24 -27.20241 153.05239 550 ft 79 kts
2026-04-15 23:24 -27.19690 153.05360 700 ft 83 kts 12°
2026-04-15 23:25 -27.19087 153.05511 820 ft 92 kts 13°
2026-04-15 23:25 -27.18463 153.05677 994 ft 92 kts 14°
2026-04-15 23:25 -27.17838 153.05850 1167 ft 92 kts 14°
2026-04-15 23:25 -27.17242 153.06115 1341 ft 92 kts 25°
2026-04-15 23:26 -27.16663 153.06395 1507 ft 92 kts 24°
2026-04-15 23:26 -27.16078 153.06679 1677 ft 92 kts 22°
2026-04-15 23:26 -27.15447 153.06984 1710 ft 106 kts 22°
2026-04-15 23:26 -27.14739 153.07325 1710 ft 115 kts 23°
2026-04-15 23:27 -27.13984 153.07686 1706 ft 120 kts 22°
2026-04-15 23:27 -27.13210 153.08055 1703 ft 122 kts 22°
2026-04-15 23:27 -27.12438 153.08423 1692 ft 114 kts 23°
2026-04-15 23:27 -27.11736 153.08756 1696 ft 108 kts 21°
2026-04-15 23:28 -27.11024 153.09093 1700 ft 112 kts 22°
2026-04-15 23:28 -27.10305 153.09435 1699 ft 112 kts 22°
2026-04-15 23:28 -27.09590 153.09774 1695 ft 111 kts 22°
2026-04-15 23:28 -27.08881 153.10111 1694 ft 110 kts 22°
2026-04-15 23:29 -27.08169 153.10449 1705 ft 113 kts 22°
2026-04-15 23:29 -27.07439 153.10797 1693 ft 113 kts 22°
2026-04-15 23:29 -27.06717 153.11139 1690 ft 112 kts 22°
2026-04-15 23:29 -27.06002 153.11478 1689 ft 111 kts 22°
2026-04-15 23:30 -27.05307 153.11808 1684 ft 110 kts 22°
2026-04-15 23:30 -27.04609 153.12139 1689 ft 109 kts 22°
2026-04-15 23:30 -27.03909 153.12471 1693 ft 109 kts 22°
2026-04-15 23:30 -27.03206 153.12803 1690 ft 110 kts 22°
2026-04-15 23:31 -27.02504 153.13137 1685 ft 109 kts 23°
2026-04-15 23:31 -27.01812 153.13465 1688 ft 107 kts 22°
2026-04-15 23:31 -27.01124 153.13792 1689 ft 107 kts 22°
2026-04-15 23:31 -27.00436 153.14119 1690 ft 107 kts 22°
2026-04-15 23:32 -26.99714 153.14283 1680 ft 108 kts 353°
2026-04-15 23:32 -26.98972 153.14174 1683 ft 107 kts 355°
2026-04-15 23:32 -26.98226 153.14076 1683 ft 108 kts 354°
2026-04-15 23:32 -26.97482 153.13978 1682 ft 107 kts 354°
2026-04-15 23:33 -26.96743 153.13880 1682 ft 107 kts 354°
2026-04-15 23:33 -26.96003 153.13783 1682 ft 107 kts 354°
2026-04-15 23:33 -26.95261 153.13685 1681 ft 108 kts 354°
2026-04-15 23:33 -26.94514 153.13588 1685 ft 108 kts 354°
2026-04-15 23:34 -26.93774 153.13491 1685 ft 109 kts 354°
2026-04-15 23:34 -26.93021 153.13391 1684 ft 109 kts 354°
2026-04-15 23:34 -26.92271 153.13293 1683 ft 108 kts 354°
2026-04-15 23:36 -26.87721 153.12696 1682 ft 110 kts 354°
2026-04-15 23:36 -26.86959 153.12596 1682 ft 110 kts 354°
2026-04-15 23:36 -26.86197 153.12496 1682 ft 110 kts 354°
2026-04-15 23:36 -26.85435 153.12396 1683 ft 110 kts 354°
2026-04-15 23:37 -26.84673 153.12296 1682 ft 110 kts 354°
2026-04-15 23:37 -26.83913 153.12197 1681 ft 110 kts 354°
2026-04-15 23:37 -26.83150 153.12097 1681 ft 110 kts 354°
2026-04-15 23:37 -26.82388 153.11996 1681 ft 110 kts 354°
2026-04-15 23:38 -26.81637 153.11898 1681 ft 110 kts 354°
2026-04-15 23:38 -26.80873 153.11798 1681 ft 111 kts 354°
2026-04-15 23:38 -26.80107 153.11697 1682 ft 111 kts 354°
2026-04-15 23:38 -26.79339 153.11596 1684 ft 111 kts 354°
2026-04-15 23:39 -26.78572 153.11496 1682 ft 111 kts 354°
2026-04-15 23:39 -26.77808 153.11396 1681 ft 110 kts 354°
2026-04-15 23:39 -26.77042 153.11296 1681 ft 111 kts 354°
2026-04-15 23:39 -26.76275 153.11195 1682 ft 111 kts 354°
2026-04-15 23:40 -26.75502 153.11094 1687 ft 112 kts 354°
2026-04-15 23:40 -26.74724 153.10992 1690 ft 113 kts 354°
2026-04-15 23:40 -26.73943 153.10891 1690 ft 113 kts 354°
2026-04-15 23:40 -26.73161 153.10788 1691 ft 113 kts 354°
2026-04-15 23:41 -26.72381 153.10687 1690 ft 112 kts 354°
2026-04-15 23:41 -26.71603 153.10585 1681 ft 112 kts 354°
2026-04-15 23:41 -26.70822 153.10483 1683 ft 113 kts 354°
2026-04-15 23:41 -26.70049 153.10382 1681 ft 114 kts 354°
2026-04-15 23:42 -26.69266 153.10279 1682 ft 113 kts 354°
2026-04-15 23:42 -26.68484 153.10177 1680 ft 113 kts 354°
2026-04-15 23:42 -26.67699 153.10074 1679 ft 114 kts 354°
2026-04-15 23:42 -26.66914 153.09972 1681 ft 114 kts 354°
2026-04-15 23:43 -26.66129 153.09869 1683 ft 114 kts 354°
2026-04-15 23:43 -26.65345 153.09766 1685 ft 113 kts 354°
2026-04-15 23:43 -26.64558 153.09664 1681 ft 114 kts 354°
2026-04-15 23:43 -26.63776 153.09561 1678 ft 113 kts 354°
2026-04-15 23:44 -26.62998 153.09459 1681 ft 113 kts 354°
2026-04-15 23:44 -26.62203 153.09355 1685 ft 117 kts 354°
2026-04-15 23:44 -26.61390 153.09249 1689 ft 119 kts 354°
2026-04-15 23:44 -26.60574 153.09143 1692 ft 120 kts 354°
2026-04-15 23:45 -26.59742 153.09045 1693 ft 120 kts
2026-04-15 23:45 -26.58910 153.09154 1689 ft 121 kts
2026-04-15 23:45 -26.58075 153.09269 1691 ft 120 kts
2026-04-15 23:45 -26.57244 153.09384 1691 ft 120 kts
2026-04-15 23:46 -26.56414 153.09498 1689 ft 120 kts
2026-04-15 23:46 -26.55583 153.09612 1689 ft 121 kts
2026-04-15 23:46 -26.54751 153.09726 1688 ft 120 kts
2026-04-15 23:46 -26.53922 153.09840 1688 ft 120 kts
2026-04-15 23:47 -26.53093 153.09954 1690 ft 120 kts
2026-04-15 23:47 -26.52261 153.10069 1691 ft 121 kts
2026-04-15 23:47 -26.51428 153.10183 1694 ft 121 kts
2026-04-15 23:47 -26.50594 153.10298 1688 ft 120 kts
2026-04-15 23:48 -26.49764 153.10411 1685 ft 120 kts
2026-04-15 23:48 -26.48934 153.10525 1686 ft 120 kts
2026-04-15 23:48 -26.48103 153.10639 1686 ft 120 kts
2026-04-15 23:48 -26.47273 153.10753 1686 ft 120 kts
2026-04-15 23:49 -26.46441 153.10867 1687 ft 121 kts
2026-04-15 23:49 -26.45606 153.10982 1687 ft 121 kts
2026-04-15 23:49 -26.44774 153.11096 1686 ft 120 kts
2026-04-15 23:49 -26.43942 153.11210 1685 ft 120 kts
2026-04-15 23:50 -26.43111 153.11323 1686 ft 120 kts
2026-04-15 23:50 -26.42292 153.11436 1685 ft 120 kts
2026-04-15 23:50 -26.41463 153.11549 1685 ft 120 kts
2026-04-15 23:51 -26.39823 153.11773 1816 ft 113 kts
2026-04-15 23:51 -26.39065 153.11879 1967 ft 111 kts
2026-04-15 23:51 -26.38306 153.11979 2109 ft 109 kts
2026-04-15 23:51 -26.37559 153.12082 2251 ft 107 kts
2026-04-15 23:52 -26.36823 153.12183 2398 ft 106 kts 10°
2026-04-15 23:52 -26.36099 153.12281 2541 ft 104 kts 10°
2026-04-15 23:52 -26.35383 153.12379 2678 ft 104 kts 10°
2026-04-15 23:52 -26.34624 153.12485 2691 ft 114 kts
2026-04-15 23:53 -26.33812 153.12597 2695 ft 120 kts
2026-04-15 23:53 -26.32976 153.12712 2697 ft 121 kts
2026-04-15 23:53 -26.32139 153.12827 2695 ft 121 kts
2026-04-15 23:53 -26.31299 153.12942 2697 ft 122 kts
2026-04-15 23:54 -26.30455 153.13057 2697 ft 123 kts
2026-04-15 23:54 -26.29606 153.13174 2695 ft 123 kts
2026-04-15 23:54 -26.28755 153.13290 2694 ft 123 kts
2026-04-15 23:54 -26.27919 153.13404 2693 ft 123 kts
2026-04-15 23:55 -26.27072 153.13519 2693 ft 123 kts
2026-04-15 23:55 -26.26221 153.13635 2700 ft 123 kts
2026-04-15 23:55 -26.25368 153.13752 2695 ft 124 kts
2026-04-15 23:55 -26.24514 153.13869 2694 ft 124 kts
2026-04-15 23:56 -26.23658 153.13986 2693 ft 124 kts 10°
2026-04-15 23:56 -26.22804 153.14102 2693 ft 124 kts
2026-04-15 23:56 -26.21952 153.14219 2692 ft 123 kts
2026-04-15 23:56 -26.21100 153.14335 2689 ft 123 kts 10°
2026-04-15 23:57 -26.20246 153.14452 2701 ft 124 kts
2026-04-15 23:57 -26.19669 153.14530 2689 ft 124 kts
2026-04-15 23:57 -26.18825 153.14645 2688 ft 124 kts
2026-04-15 23:57 -26.17962 153.14763 2687 ft 123 kts
2026-04-15 23:58 -26.17119 153.14878 2689 ft 124 kts 10°
2026-04-15 23:58 -26.16265 153.14995 2688 ft 124 kts
2026-04-15 23:58 -26.15411 153.15111 2688 ft 123 kts 10°
2026-04-15 23:58 -26.14561 153.15227 2687 ft 123 kts
2026-04-15 23:59 -26.13709 153.15343 2686 ft 123 kts
2026-04-15 23:59 -26.12856 153.15459 2687 ft 124 kts 10°
2026-04-15 23:59 -26.12002 153.15576 2690 ft 124 kts
2026-04-15 23:59 -26.11147 153.15692 2688 ft 124 kts
2026-04-16 00:00 -26.10290 153.15809 2683 ft 124 kts 10°
2026-04-16 00:00 -26.09436 153.15925 2682 ft 124 kts
2026-04-16 00:00 -26.08583 153.16042 2682 ft 123 kts 10°
2026-04-16 00:00 -26.07731 153.16158 2687 ft 123 kts 10°
2026-04-16 00:01 -26.06876 153.16274 2686 ft 124 kts
2026-04-16 00:01 -26.06022 153.16390 2682 ft 124 kts 10°
2026-04-16 00:01 -26.05176 153.16505 2681 ft 124 kts
2026-04-16 00:01 -26.04322 153.16621 2680 ft 123 kts 10°
2026-04-16 00:02 -26.03469 153.16737 2680 ft 124 kts
2026-04-16 00:02 -26.02613 153.16854 2679 ft 124 kts
2026-04-16 00:02 -26.01759 153.16970 2679 ft 123 kts
2026-04-16 00:02 -26.00908 153.17085 2677 ft 123 kts
2026-04-16 00:03 -26.00057 153.17201 2676 ft 123 kts 11°
2026-04-16 00:03 -25.99203 153.17317 2676 ft 124 kts 11°
2026-04-16 00:03 -25.98349 153.17433 2673 ft 124 kts 10°
2026-04-16 00:03 -25.97496 153.17549 2675 ft 123 kts 11°
2026-04-16 00:04 -25.96643 153.17665 2675 ft 123 kts 11°
2026-04-16 00:04 -25.95791 153.17781 2675 ft 124 kts 10°
2026-04-16 00:04 -25.94922 153.17900 2702 ft 133 kts 11°
2026-04-16 00:04 -25.94014 153.18032 2704 ft 128 kts 11°
2026-04-16 00:05 -25.93112 153.18129 2572 ft 136 kts
2026-04-16 00:05 -25.92290 153.18263 2656 ft 104 kts 14°
2026-04-16 00:05 -25.91608 153.18226 2667 ft 98 kts 343°
2026-04-16 00:05 -25.91030 153.17782 2694 ft 108 kts 325°
2026-04-16 00:06 -25.90399 153.17247 2690 ft 119 kts 324°
2026-04-16 00:06 -25.89727 153.16665 2684 ft 126 kts 324°
2026-04-16 00:06 -25.89036 153.16065 2690 ft 126 kts 324°
2026-04-16 00:06 -25.88339 153.15461 2690 ft 127 kts 325°
2026-04-16 00:07 -25.87640 153.14855 2686 ft 128 kts 325°
2026-04-16 00:07 -25.86936 153.14246 2688 ft 128 kts 325°
2026-04-16 00:07 -25.86235 153.13638 2680 ft 127 kts 324°
2026-04-16 00:07 -25.85536 153.13034 2682 ft 128 kts 325°
2026-04-16 00:08 -25.84838 153.12428 2681 ft 127 kts 325°
2026-04-16 00:08 -25.84141 153.11825 2687 ft 127 kts 326°
2026-04-16 00:08 -25.83445 153.11222 2677 ft 127 kts 325°
2026-04-16 00:08 -25.82747 153.10619 2676 ft 127 kts 325°
2026-04-16 00:09 -25.82056 153.10019 2674 ft 125 kts 326°
2026-04-16 00:09 -25.81363 153.09420 2678 ft 127 kts 325°
2026-04-16 00:09 -25.80669 153.08819 2683 ft 127 kts 326°
2026-04-16 00:09 -25.79973 153.08217 2672 ft 127 kts 326°
2026-04-16 00:10 -25.79279 153.07616 2681 ft 127 kts 326°
2026-04-16 00:10 -25.78580 153.07014 2681 ft 129 kts 325°
2026-04-16 00:10 -25.77863 153.06393 2680 ft 131 kts 325°
2026-04-16 00:10 -25.77146 153.05771 2681 ft 130 kts 325°
2026-04-16 00:11 -25.76436 153.05154 2680 ft 130 kts 326°
2026-04-16 00:11 -25.75717 153.04537 2677 ft 130 kts 326°
2026-04-16 00:11 -25.75005 153.03921 2682 ft 130 kts 325°
2026-04-16 00:11 -25.74295 153.03308 2671 ft 128 kts 326°
2026-04-16 00:12 -25.73595 153.02702 2681 ft 128 kts 326°
2026-04-16 00:12 -25.72887 153.02091 2676 ft 129 kts 325°
2026-04-16 00:12 -25.72180 153.01482 2684 ft 130 kts 325°
2026-04-16 00:12 -25.71453 153.00854 2699 ft 135 kts 325°
2026-04-16 00:13 -25.70695 153.00202 2687 ft 140 kts 326°
2026-04-16 00:13 -25.69927 152.99538 2666 ft 137 kts 324°
2026-04-16 00:13 -25.69211 152.98919 2673 ft 126 kts 325°
2026-04-16 00:13 -25.68528 152.98330 2674 ft 123 kts 326°
2026-04-16 00:14 -25.67852 152.97746 2677 ft 122 kts 326°
2026-04-16 00:14 -25.67181 152.97167 2673 ft 122 kts 326°